Whiteman AFB, MO

6:07 PM CST on December 06, 2019 (GMT -0600)
Whiteman Air Force Base

Weather History for KSZL - October, 2019

Change the Weather History Date:

Saturday, October 12, 2019

  Actual Average Record
Temperature  
Mean Temperature 46 °F -  
Max Temperature 63 °F 66 °F 82 °F (1999)
Min Temperature 31 °F 46 °F 37 °F (2006)
Degree Days  
Heating Degree Days 18    
Moisture  
Dew Point 31 °F    
Average Humidity 57    
Maximum Humidity 90    
Minimum Humidity 30    
Precipitation  
Precipitation 0.00 in - - ()
Sea Level Pressure  
Sea Level Pressure 30.03 in    
Wind  
Wind Speed 10 mph (SSW)    
Max Wind Speed 20 mph    
Max Gust Speed 29 mph    
Visibility 10 miles    
Events      
Averages and records for this station are not official NWS values.
T = Trace of Precipitation, MM = Missing Value Source: NWS Daily Summary

Daily Weather History Graph

Daily Weather History Graph

Search for Another Location

Airport or City:

Astronomy

Oct. 12, 2019 Rise Set
Actual Time 7:20 AM CDT 6:40 PM CDT
Civil Twilight 6:53 AM CDT 7:07 PM CDT
Nautical Twilight 6:22 AM CDT 7:37 PM CDT
Astronomical Twilight 5:51 AM CDT 8:08 PM CDT
Moon 6:35 PM CDT (10/12) 5:59 AM CDT (10/12)
Length of Visible Light 12h 13m
Length of Day
11h 20m
Waxing Gibbous, 99% of the Moon is Illuminated
Oct 12
Waxing Gibbous
Oct 13
Full
Oct 21
Last Quarter
Oct 27
New
Nov 4
First Quarter

Hourly Weather History & Observations

Time (CDT) Temp. Windchill Dew Point Humidity Pressure Visibility Wind Dir Wind Speed Gust Speed Precip Events Conditions
12:56 AM 32.9 °F 27.5 °F 29.7 °F 88% 30.18 in 10.0 mi SW 5.8 mph - N/A   Clear
1:56 AM 36.0 °F 30.3 °F 29.5 °F 77% 30.18 in 10.0 mi SW 6.9 mph - N/A   Clear
2:56 AM 34.5 °F 27.9 °F 29.7 °F 82% 30.17 in 10.0 mi SSW 8.1 mph - N/A   Clear
3:56 AM 32.5 °F 25.5 °F 29.3 °F 88% 30.16 in 10.0 mi SSW 8.1 mph - N/A   Clear
4:56 AM 32.0 °F 26.4 °F 29.5 °F 90% 30.14 in 10.0 mi SSW 5.8 mph - N/A   Clear
5:56 AM 33.4 °F 26.6 °F 28.6 °F 82% 30.14 in 10.0 mi SW 8.1 mph - N/A   Clear
6:56 AM 31.8 °F 23.9 °F 28.0 °F 86% 30.15 in 10.0 mi SSW 9.2 mph - N/A   Clear
8:56 AM 39.9 °F 32.5 °F 29.5 °F 66% 30.13 in 10.0 mi SSW 12.7 mph - N/A   Clear
9:56 AM 46.8 °F - 29.1 °F 50% 30.12 in 10.0 mi SW 11.5 mph - N/A   Clear
10:56 AM 52.2 °F - 28.6 °F 40% 30.10 in 10.0 mi SW 11.5 mph - N/A   Clear
11:56 AM 56.3 °F - 28.2 °F 34% 30.08 in 10.0 mi SW 16.1 mph 21.9 mph N/A   Clear
12:56 PM 60.1 °F - 28.6 °F 30% 30.04 in 10.0 mi SSW 15.0 mph 24.2 mph N/A   Clear
1:56 PM 62.1 °F - 30.2 °F 30% 30.01 in 10.0 mi SW 16.1 mph 27.6 mph N/A   Clear
2:56 PM 62.8 °F - 31.6 °F 31% 29.96 in 10.0 mi SW 17.3 mph 28.8 mph N/A   Clear
3:56 PM 62.6 °F - 31.5 °F 31% 29.95 in 10.0 mi SSW 19.6 mph 26.5 mph N/A   Clear
4:56 PM 61.9 °F - 33.3 °F 34% 29.93 in 10.0 mi SSW 19.6 mph 25.3 mph N/A   Clear
5:56 PM 59.5 °F - 34.5 °F 39% 29.92 in 10.0 mi SSW 12.7 mph - N/A   Clear
6:56 PM 50.7 °F - 36.5 °F 58% 29.92 in 10.0 mi South 9.2 mph - N/A   Clear
7:56 PM 49.6 °F - 36.0 °F 59% 29.91 in 10.0 mi South 10.4 mph - N/A   Clear
8:56 PM 51.8 °F - 35.6 °F 54% 29.90 in 10.0 mi SSW 15.0 mph - N/A   Clear
9:56 PM 52.7 °F - 34.2 °F 49% 29.89 in 10.0 mi SSW 17.3 mph - N/A   Clear
10:56 PM 51.6 °F - 34.2 °F 51% 29.90 in 10.0 mi SSW 16.1 mph - N/A   Clear
11:56 PM 50.2 °F - 34.7 °F 55% 29.90 in 10.0 mi SW 13.8 mph - N/A   Clear